Weather Roundup
Issued by NWS

Home | Current Version | Previous Version | Graphics & Text | Print | Product List | Glossary Off
Versions: 1 2 3 4 5 6 7 8 9 10 11 12 13 14 15 16 17 18 19 20 21 22 23 24 25 26 27 28 29 30 31 32 33 34 35 36 37 38 39 40 41 42 43 44 45 46 47 48 49 50

000
NZUS93 KARX 241410
HRRWXR

CURRENT HOURLY OBSERVATIONS ACROSS
MUCH OF THE UPPER MISSISSIPPI VALLEY
NATIONAL WEATHER SERVICE LA CROSSE WI
900 AM CDT FRI OCT 24 2014


...SOUTHEAST MINNESOTA...


CITY           SKY/WX    TMP DP  RH WIND       PRES   REMARKS
ROCHESTER      PTSUNNY   48  47  96 S10       29.94S FOG
ROCHESTER/MAYO FAIR      48  48  98 SE12      29.93S
WINONA         CLOUDY    54  52  94 SE6       29.98R
AUSTIN         PTSUNNY   48  48 100 SE7       29.92S
ALBERT LEA     PTSUNNY   50  48  93 SE9       29.89F FOG
DODGE CENTER   CLOUDY    52  48  87 SE9       29.91F
PRESTON        FOG       48  48  98 S8        29.98R VSB<1/4
OWATONNA       PTSUNNY   54  48  82 SE14G20   29.88F
FARIBAULT      PTSUNNY   54  48  82 S7        29.89S
$$

...ELSEWHERE IN MINNESOTA...


CITY           SKY/WX    TMP DP  RH WIND       PRES   REMARKS
MINNEAPOLIS    PTSUNNY   50  46  86 SE7       29.89S
INTNL FALLS    CLOUDY    52  43  71 VRB5      29.74F
DULUTH         PTSUNNY   49  45  86 S9        29.86F
RED WING       PTSUNNY   50  48  93 SE9       29.92S
REDWOOD FALLS  PTSUNNY   46  43  89 SE5       29.85R
MANKATO        PTSUNNY   54  45  71 S7        29.87S
WORTHINGTON    CLOUDY    54  50  87 SW10      29.87R
FAIRMONT       PTSUNNY   52  46  82 S8        29.87R
$$

...SOUTHWEST WISCONSIN...


CITY           SKY/WX    TMP DP  RH WIND       PRES   REMARKS
LA CROSSE      FOG       51  50  96 S10       29.99R VSB 1
PRAIRIE DU CHI FOG       52  51  97 SE3       30.01S VSB 3/4
BOSCOBEL       CLOUDY    52  50  93 CALM      30.02F FOG
LONE ROCK      CLOUDY    53  48  83 S3        30.03F HAZE
PLATTEVILLE    CLOUDY    51  51  98 SE7       30.04F VSB<1/4
FORT MC COY    CLOUDY    48  48 100 CALM      30.01F FOG
CAMP DOUGLAS   CLOUDY    48  48 100 SE5       30.01F FOG
VIROQUA        CLOUDY    49  49 100 CALM      30.00S VSB<1/4
WIS DELLS      FOG       46  45  96 S6        30.02F VSB<1/4
$$

...ELSEWHERE IN WISCONSIN...


CITY           SKY/WX    TMP DP  RH WIND       PRES   REMARKS
MILWAUKEE      CLOUDY    50  47  89 W6        30.05S
MADISON        FOG       50  48  93 S6        30.04F VSB 3/4
GREEN BAY      CLOUDY    48  47  96 W6        30.02F FOG
EAU CLAIRE     CLOUDY    50  48  93 SE7       29.97R
BLACK RVR FLS  FOG       49  49 100 S5        29.99S VSB 1
MEDFORD        FOG       44  44 100 SE5       29.99F VSB 1/4
WAUSAU         FOG       45  45 100 S3        30.00R VSB 1/4
WIS RAPIDS     FOG       46  46 100 S6        30.03S VSB 1/4
MARSHFIELD     FOG       46  45  96 S6        30.00R VSB<1/4
RICE LAKE      CLOUDY    49  47  93 SE8       29.96F FOG
$$

...NORTHEAST IOWA...


CITY           SKY/WX    TMP DP  RH WIND       PRES   REMARKS
DECORAH        FOG       52  52 100 S7        29.98S VSB<1/4
MASON CITY     CLOUDY    49  49 100 S10       29.93F FOG
CHARLES CITY   FOG       48  48 100 SE8       29.97R VSB 3/4
OELWEIN        FOG       50  50 100 SE13      30.00S VSB<1/4
$$

...ELSEWHERE IN IOWA...


CITY           SKY/WX    TMP DP  RH WIND       PRES   REMARKS
DES MOINES     FOG       59  58  96 S10       29.98S VSB 1/8
IOWA CITY      FOG       49  49 100 S6        30.07S VSB<1/4
FORT DODGE     CLOUDY    57  54  88 S13       29.91F VSB 3/4
$$

...NORTHERN ILLINOIS...


CITY           SKY/WX    TMP DP  RH WIND       PRES   REMARKS
CHICAGO-OHARE  PTSUNNY   53  46  77 NW6       30.06S
CHICAGO-MIDWAY CLOUDY    55  47  74 SW6       30.07R
MOLINE         FOG       54  53  97 S6        30.07R VSB 3/4
ROCKFORD       FOG       50  49  96 CALM      30.09R VSB 3/4
PEORIA         FOG       52  50  93 CALM      30.10R VSB<1/4
$$

NOTE: "FAIR" INDICATES FEW OR NO CLOUDS BELOW 12,000 FEET WITH NO
SIGNIFICANT WEATHER AND/OR OBSTRUCTIONS TO VISIBILITY. WIND
SPEEDS ARE IN MILES-PER-HOUR.



USA.gov is the U.S. government's official web portal to all federal, state and local government web resources and services.